Regional Weather Roundup
Issued by NWS

Home | Current Version | Previous Version | Graphics & Text | Print | Product List | Glossary On
Versions: 1 2 3 4 5 6 7 8 9 10 11 12 13 14 15 16 17 18 19 20 21 22 23 24 25 26 27 28 29 30 31 32 33 34 35 36 37 38 39 40 41 42 43 44 45 46 47 48 49 50
000
ASUS43 KOAX 041702
RWRNE

WEATHER ROUNDUP FOR NEBRASKA
NATIONAL WEATHER SERVICE OMAHA NE
1200 PM CDT FRI SEP 04 2015

NOTES: SATELLITE DATA IS BEING USED TO AUGMENT CLOUD COVER ABOVE
       12000 FEET.
       "FAIR" INDICATES FEW OR NO CLOUDS BELOW 12,000 FEET WITH NO
       SIGNIFICANT WEATHER AND/OR OBSTRUCTIONS TO VISIBILITY.

  * THESE STATIONS DO NOT REPORT WEATHER SUCH AS RAIN...SNOW OR FOG.

NEZ001>004-019>022-054>056-041800-
NEBRASKA PANHANDLE

CITY           SKY/WX    TMP DP  RH WIND       PRES   REMARKS
SCOTTSBLUFF    SUNNY     80  49  33 SW6       29.92F
ALLIANCE       SUNNY     82  52  35 CALM      29.91S
CHADRON        SUNNY     85  49  28 VRB5      29.85S
KIMBALL        MOSUNNY   80  45  28 NW8       29.97S
SIDNEY         MOSUNNY   87  46  24 NW10      29.95S
$$

NEZ057>060-069>072-079>082-041800-
SOUTHWEST NEBRASKA

CITY           SKY/WX    TMP DP  RH WIND       PRES   REMARKS
NORTH PLATTE   SUNNY     79  62  56 VRB3      29.86S
IMPERIAL       SUNNY     83  57  41 W5        29.90S
LEXINGTON      SUNNY     84  62  46 S14       29.85F
MC COOK        SUNNY     83  62  49 VRB7      29.86S
OGALLALA       SUNNY     79  61  53 SW5       29.89S
$$

NEZ005>010-023>029-035>040-094-041800-
NORTH CENTRAL NEBRASKA

CITY           SKY/WX    TMP DP  RH WIND       PRES   REMARKS
VALENTINE      SUNNY     84  60  44 SW10      29.81F
AINSWORTH      SUNNY     82  65  56 S10       29.83S
BROKEN BOW     SUNNY     83  63  50 S13       29.85S
O`NEILL        SUNNY     84  66  55 S14G20    29.83F
ORD            MOSUNNY   83  63  50 S20G26    29.83F
THEDFORD       SUNNY     83  63  51 W3        29.86S
$$

NEZ041-046>049-061>064-073>077-083>087-041800-
SOUTH CENTRAL NEBRASKA

CITY           SKY/WX    TMP DP  RH WIND       PRES   REMARKS
GRAND ISLAND   MOSUNNY   85  65  51 S16G29    29.86F
AURORA         MOSUNNY   84  65  52 S20G30    29.86F
HASTINGS       MOSUNNY   85  64  49 S16G25    29.86F
HEBRON         SUNNY     85  64  48 S14G26    29.90S
HOLDREGE       SUNNY     82  59  45 S16G23    29.86S
KEARNEY *      MOSUNNY   82  63  51 S21G26    29.86R
YORK           SUNNY     84  68  58 S20G26    29.87F
$$

NEZ011>018-030>034-042>045-041800-
NORTHEAST NEBRASKA

CITY           SKY/WX    TMP DP  RH WIND       PRES   REMARKS
NORFOLK        MOSUNNY   82  69  64 SE12G25   29.86S
ALBION         SUNNY     83  66  57 S15G22    29.85S
BLAIR          FAIR      79  68  69 S13       29.91R
COLUMBUS *     MOSUNNY   84  66  54 S12G22    29.86S
FREMONT        PTSUNNY   81  68  66 SE9       29.90R
TEKAMAH        PTSUNNY   83  71  67 S14       29.89S
$$

NEZ050>053-065>068-078-088>093-041800-
SOUTHEAST NEBRASKA

CITY           SKY/WX    TMP DP  RH WIND       PRES   REMARKS
LINCOLN        PTSUNNY   84  71  65 S20G26    29.88F
OMAHA EPPLEY   PTSUNNY   83  71  67 SE15      29.89F
BEATRICE       PTSUNNY   84  68  58 S15G25    29.91F
FALLS CITY     MOSUNNY   89  69  51 S10       29.94F HX  93
NEBRASKA CITY  PTSUNNY   85  63  47 S17G23    29.93F
PLATTSMOUTH    PTSUNNY   82  68  64 SE16G22   29.90F
$$

NEZ044-045-051>053-067-041800-
OMAHA AREA

CITY           SKY/WX    TMP DP  RH WIND       PRES   REMARKS
EPPLEY FIELD   PTSUNNY   83  71  67 SE15      29.89F
BLAIR          PTSUNNY   79  68  69 S13       29.91R
FREMONT        PTSUNNY   81  68  66 SE9       29.90R
MILLARD        CLOUDY    80  70  71 SE8       29.89F
OFFUTT AFB     PTSUNNY   83  69  62 SE7       29.89F
PLATTSMOUTH    PTSUNNY   82  68  64 SE16G22   29.90F
WAHOO          FAIR      81  70  68 S8        29.89F
$$



USA.gov is the U.S. government's official web portal to all federal, state and local government web resources and services.